Time,TemperatureF,DewpointF,PressureIn,WindDirection,WindDirectionDegrees,WindSpeedMPH,WindSpeedGustMPH,Humidity,HourlyPrecipIn,Conditions,Clouds,dailyrainin,SoftwareType,DateUTC
2013-07-01 00:00:00,66.0,55.5,30.29,SE,124,9.0,11.0,69,0.00,,,0.00,Wunderground v.1.15,2013-07-01 06:00:00,
2013-07-01 00:06:00,65.9,55.8,30.30,SE,145,9.0,17.0,70,0.00,,,0.00,Wunderground v.1.15,2013-07-01 06:06:00,
2013-07-01 00:11:00,65.8,55.7,30.29,SE,135,8.0,10.0,70,0.00,,,0.00,Wunderground v.1.15,2013-07-01 06:11:00,
2013-07-01 00:17:00,65.8,55.7,30.30,SE,130,8.0,10.0,70,0.00,,,0.00,Wunderground v.1.15,2013-07-01 06:17:00,
2013-07-01 00:24:00,65.6,55.9,30.30,SSE,158,6.0,7.0,71,0.00,,,0.00,Wunderground v.1.15,2013-07-01 06:24:00,
2013-07-01 00:30:00,65.2,55.9,30.30,SSE,164,5.0,5.0,72,0.00,,,0.00,Wunderground v.1.15,2013-07-01 06:30:00,
2013-07-01 00:36:00,64.9,56.0,30.30,SSE,166,4.0,16.0,73,0.00,,,0.00,Wunderground v.1.15,2013-07-01 06:36:00,
2013-07-01 00:41:00,64.6,55.7,30.30,SSE,164,4.0,4.0,73,0.00,,,0.00,Wunderground v.1.15,2013-07-01 06:41:00,
2013-07-01 00:48:00,64.5,56.0,30.30,SSE,165,4.0,4.0,74,0.00,,,0.00,Wunderground v.1.15,2013-07-01 06:48:00,
2013-07-01 00:54:00,64.4,55.9,30.30,SSE,166,4.0,5.0,74,0.00,,,0.00,Wunderground v.1.15,2013-07-01 06:54:00,
2013-07-01 01:00:00,64.3,55.8,30.31,SE,136,4.0,6.0,74,0.00,,,0.00,Wunderground v.1.15,2013-07-01 07:00:00,
2013-07-01 01:05:00,64.2,55.7,30.30,SSE,162,3.0,13.0,74,0.00,,,0.00,Wunderground v.1.15,2013-07-01 07:05:00,
2013-07-01 01:12:00,64.0,55.9,30.31,SSE,168,4.0,5.0,75,0.00,,,0.00,Wunderground v.1.15,2013-07-01 07:12:00,
2013-07-01 01:18:00,63.9,55.8,30.31,SSE,151,4.0,5.0,75,0.00,,,0.00,Wunderground v.1.15,2013-07-01 07:18:00,
2013-07-01 01:24:00,63.9,55.8,30.31,SSE,153,3.0,4.0,75,0.00,,,0.00,Wunderground v.1.15,2013-07-01 07:24:00,
2013-07-01 01:30:00,63.9,55.8,30.31,SSE,164,3.0,3.0,75,0.00,,,0.00,Wunderground v.1.15,2013-07-01 07:30:00,
2013-07-01 01:35:00,63.9,55.8,30.31,SSE,164,2.0,8.0,75,0.00,,,0.00,Wunderground v.1.15,2013-07-01 07:35:00,
2013-07-01 01:42:00,63.9,55.8,30.31,SSE,162,2.0,3.0,75,0.00,,,0.00,Wunderground v.1.15,2013-07-01 07:42:00,
2013-07-01 01:48:00,63.9,55.8,30.31,SSE,162,2.0,3.0,75,0.00,,,0.00,Wunderground v.1.15,2013-07-01 07:48:00,
2013-07-01 01:53:00,63.8,55.7,30.31,SSE,162,2.0,2.0,75,0.00,,,0.00,Wunderground v.1.15,2013-07-01 07:53:00,
2013-07-01 01:59:00,63.7,56.0,30.31,SSE,162,2.0,2.0,76,0.00,,,0.00,Wunderground v.1.15,2013-07-01 07:59:00,
2013-07-01 02:06:00,63.6,55.9,30.31,SSE,162,2.0,7.0,76,0.00,,,0.00,Wunderground v.1.15,2013-07-01 08:06:00,
2013-07-01 02:12:00,63.4,55.7,30.31,South,176,3.0,3.0,76,0.00,,,0.00,Wunderground v.1.15,2013-07-01 08:12:00,
2013-07-01 02:18:00,63.4,55.7,30.31,South,169,3.0,4.0,76,0.00,,,0.00,Wunderground v.1.15,2013-07-01 08:18:00,
2013-07-01 02:23:00,63.3,55.6,30.31,South,169,2.0,3.0,76,0.00,,,0.00,Wunderground v.1.15,2013-07-01 08:23:00,
2013-07-01 02:29:00,63.3,55.6,30.31,South,169,2.0,2.0,76,0.00,,,0.00,Wunderground v.1.15,2013-07-01 08:29:00,
2013-07-01 02:36:00,63.2,55.5,30.31,SSE,167,2.0,5.0,76,0.00,,,0.00,Wunderground v.1.15,2013-07-01 08:36:00,
2013-07-01 02:42:00,63.2,55.5,30.31,South,170,3.0,3.0,76,0.00,,,0.00,Wunderground v.1.15,2013-07-01 08:42:00,
2013-07-01 02:48:00,63.1,55.4,30.31,SSE,168,2.0,3.0,76,0.00,,,0.00,Wunderground v.1.15,2013-07-01 08:48:00,
2013-07-01 02:53:00,63.0,55.7,30.31,SSE,168,2.0,2.0,77,0.00,,,0.00,Wunderground v.1.15,2013-07-01 08:53:00,
2013-07-01 03:00:00,62.8,55.5,30.31,SSE,168,1.0,1.0,77,0.00,,,0.00,Wunderground v.1.15,2013-07-01 09:00:00,
2013-07-01 03:06:00,62.7,55.4,30.31,SSE,168,1.0,6.0,77,0.00,,,0.00,Wunderground v.1.15,2013-07-01 09:06:00,
2013-07-01 03:12:00,62.7,55.4,30.31,SSE,168,2.0,2.0,77,0.00,,,0.00,Wunderground v.1.15,2013-07-01 09:12:00,
2013-07-01 03:18:00,62.6,55.3,30.31,SSE,168,2.0,2.0,77,0.00,,,0.00,Wunderground v.1.15,2013-07-01 09:18:00,
2013-07-01 03:23:00,62.4,55.4,30.31,SSE,168,0.0,1.0,78,0.00,,,0.00,Wunderground v.1.15,2013-07-01 09:23:00,
2013-07-01 03:30:00,62.2,55.3,30.31,SSE,168,0.0,0.0,78,0.00,,,0.00,Wunderground v.1.15,2013-07-01 09:30:00,
2013-07-01 03:36:00,62.0,55.4,30.31,SSE,168,0.0,5.0,79,0.00,,,0.00,Wunderground v.1.15,2013-07-01 09:36:00,
2013-07-01 03:41:00,62.0,55.4,30.31,SSE,168,1.0,2.0,79,0.00,,,0.00,Wunderground v.1.15,2013-07-01 09:41:00,
2013-07-01 03:48:00,62.1,55.5,30.31,SSE,168,2.0,3.0,79,0.00,,,0.00,Wunderground v.1.15,2013-07-01 09:48:00,
2013-07-01 03:54:00,62.2,55.6,30.31,SSE,168,2.0,2.0,79,0.00,,,0.00,Wunderground v.1.15,2013-07-01 09:54:00,
2013-07-01 04:00:00,62.1,55.5,30.31,SSE,168,1.0,1.0,79,0.00,,,0.00,Wunderground v.1.15,2013-07-01 10:00:00,
2013-07-01 04:06:00,62.0,55.4,30.31,SSE,168,1.0,3.0,79,0.00,,,0.00,Wunderground v.1.15,2013-07-01 10:06:00,
2013-07-01 04:11:00,62.1,55.5,30.31,SSE,168,2.0,2.0,79,0.00,,,0.00,Wunderground v.1.15,2013-07-01 10:11:00,
2013-07-01 04:18:00,62.1,55.5,30.31,SSE,168,2.0,3.0,79,0.00,,,0.00,Wunderground v.1.15,2013-07-01 10:18:00,
2013-07-01 04:24:00,62.1,55.5,30.31,SSE,168,2.0,3.0,79,0.00,,,0.00,Wunderground v.1.15,2013-07-01 10:24:00,
2013-07-01 04:30:00,62.1,55.5,30.31,SSE,168,2.0,3.0,79,0.00,,,0.00,Wunderground v.1.15,2013-07-01 10:30:00,
2013-07-01 04:36:00,62.1,55.5,30.31,SSE,164,2.0,4.0,79,0.00,,,0.00,Wunderground v.1.15,2013-07-01 10:36:00,
2013-07-01 04:41:00,62.3,55.4,30.31,SSE,160,3.0,4.0,78,0.00,,,0.00,Wunderground v.1.15,2013-07-01 10:41:00,
2013-07-01 04:48:00,62.3,55.4,30.31,SSE,154,3.0,4.0,78,0.00,,,0.00,Wunderground v.1.15,2013-07-01 10:48:00,
2013-07-01 04:54:00,62.2,55.3,30.31,SSE,158,3.0,4.0,78,0.00,,,0.00,Wunderground v.1.15,2013-07-01 10:54:00,
2013-07-01 05:00:00,62.1,55.2,30.31,SSE,164,3.0,4.0,78,0.00,,,0.00,Wunderground v.1.15,2013-07-01 11:00:00,
2013-07-01 05:06:00,62.0,55.4,30.31,SSE,163,4.0,5.0,79,0.00,,,0.00,Wunderground v.1.15,2013-07-01 11:06:00,
2013-07-01 05:11:00,62.0,55.4,30.31,SSE,161,4.0,5.0,79,0.00,,,0.00,Wunderground v.1.15,2013-07-01 11:11:00,
2013-07-01 05:18:00,61.8,55.2,30.31,SSE,166,4.0,5.0,79,0.00,,,0.00,Wunderground v.1.15,2013-07-01 11:18:00,
2013-07-01 05:24:00,61.5,54.9,30.32,SSE,165,3.0,4.0,79,0.00,,,0.00,Wunderground v.1.15,2013-07-01 11:24:00,
2013-07-01 05:30:00,61.3,55.1,30.32,SSE,164,3.0,3.0,80,0.00,,,0.00,Wunderground v.1.15,2013-07-01 11:30:00,
2013-07-01 05:36:00,61.2,55.0,30.32,SSE,165,2.0,7.0,80,0.00,,,0.00,Wunderground v.1.15,2013-07-01 11:36:00,
2013-07-01 05:42:00,61.1,55.2,30.32,SSE,164,2.0,2.0,81,0.00,,,0.00,Wunderground v.1.15,2013-07-01 11:42:00,
2013-07-01 05:48:00,61.2,55.3,30.32,SSE,166,2.0,2.0,81,0.00,,,0.00,Wunderground v.1.15,2013-07-01 11:48:00,
2013-07-01 05:54:00,61.4,55.5,30.32,SSE,165,2.0,3.0,81,0.00,,,0.00,Wunderground v.1.15,2013-07-01 11:54:00,
2013-07-01 06:00:00,61.6,55.4,30.32,SSE,164,3.0,3.0,80,0.00,,,0.00,Wunderground v.1.15,2013-07-01 12:00:00,
2013-07-01 06:06:00,62.2,55.6,30.32,South,169,3.0,6.0,79,0.00,,,0.00,Wunderground v.1.15,2013-07-01 12:06:00,
2013-07-01 06:12:00,62.6,55.6,30.32,SSE,149,3.0,3.0,78,0.00,,,0.00,Wunderground v.1.15,2013-07-01 12:12:00,
2013-07-01 06:18:00,62.8,55.8,30.32,SSE,152,3.0,5.0,78,0.00,,,0.00,Wunderground v.1.15,2013-07-01 12:18:00,
2013-07-01 06:24:00,62.7,55.7,30.32,SE,139,4.0,4.0,78,0.00,,,0.00,Wunderground v.1.15,2013-07-01 12:24:00,
2013-07-01 06:30:00,62.4,55.4,30.33,SSE,147,4.0,4.0,78,0.00,,,0.00,Wunderground v.1.15,2013-07-01 12:30:00,
2013-07-01 06:35:00,62.2,55.6,30.33,SSE,148,2.0,6.0,79,0.00,,,0.00,Wunderground v.1.15,2013-07-01 12:35:00,
2013-07-01 06:42:00,62.3,55.7,30.33,SSE,148,3.0,3.0,79,0.00,,,0.00,Wunderground v.1.15,2013-07-01 12:42:00,
2013-07-01 06:48:00,62.6,55.6,30.33,SSE,158,3.0,4.0,78,0.00,,,0.00,Wunderground v.1.15,2013-07-01 12:48:00,
2013-07-01 06:54:00,62.9,55.9,30.32,SE,145,5.0,6.0,78,0.00,,,0.00,Wunderground v.1.15,2013-07-01 12:54:00,
2013-07-01 07:00:00,63.2,55.9,30.32,SE,143,5.0,5.0,77,0.00,,,0.00,Wunderground v.1.15,2013-07-01 13:00:00,
2013-07-01 07:05:00,63.8,56.1,30.33,SSE,148,5.0,7.0,76,0.00,,,0.00,Wunderground v.1.15,2013-07-01 13:05:00,
2013-07-01 07:12:00,64.4,56.3,30.33,SE,142,5.0,7.0,75,0.00,,,0.00,Wunderground v.1.15,2013-07-01 13:12:00,
2013-07-01 07:18:00,64.4,55.9,30.33,SSE,167,6.0,9.0,74,0.00,,,0.00,Wunderground v.1.15,2013-07-01 13:18:00,
2013-07-01 07:24:00,64.6,56.1,30.33,SSE,160,6.0,7.0,74,0.00,,,0.00,Wunderground v.1.15,2013-07-01 13:24:00,
2013-07-01 07:29:00,64.9,56.4,30.33,SE,137,6.0,8.0,74,0.00,,,0.00,Wunderground v.1.15,2013-07-01 13:29:00,
2013-07-01 07:36:00,64.9,56.4,30.33,SSE,156,6.0,10.0,74,0.00,,,0.00,Wunderground v.1.15,2013-07-01 13:36:00,
2013-07-01 07:41:00,65.1,56.2,30.33,SSE,164,5.0,5.0,73,0.00,,,0.00,Wunderground v.1.15,2013-07-01 13:41:00,
2013-07-01 07:48:00,65.1,56.2,30.33,SSE,163,5.0,5.0,73,0.00,,,0.00,Wunderground v.1.15,2013-07-01 13:48:00,
2013-07-01 07:53:00,65.4,56.5,30.33,SSE,164,5.0,7.0,73,0.00,,,0.00,Wunderground v.1.15,2013-07-01 13:53:00,
2013-07-01 07:59:00,66.2,56.5,30.33,SSE,156,6.0,7.0,71,0.00,,,0.00,Wunderground v.1.15,2013-07-01 13:59:00,
2013-07-01 08:06:00,67.3,56.8,30.33,SSE,160,7.0,10.0,69,0.00,,,0.00,Wunderground v.1.15,2013-07-01 14:06:00,
2013-07-01 08:12:00,67.8,57.3,30.33,SSE,149,6.0,7.0,69,0.00,,,0.00,Wunderground v.1.15,2013-07-01 14:12:00,
2013-07-01 08:18:00,68.3,56.5,30.33,SSE,154,7.0,8.0,66,0.00,,,0.00,Wunderground v.1.15,2013-07-01 14:18:00,
2013-07-01 08:23:00,68.7,57.7,30.33,SSE,154,7.0,7.0,68,0.00,,,0.00,Wunderground v.1.15,2013-07-01 14:23:00,
2013-07-01 08:29:00,69.2,56.5,30.33,SE,145,7.0,9.0,64,0.00,,,0.00,Wunderground v.1.15,2013-07-01 14:29:00,
2013-07-01 08:36:00,69.3,56.2,30.33,SSE,158,8.0,12.0,63,0.00,,,0.00,Wunderground v.1.15,2013-07-01 14:36:00,
2013-07-01 08:42:00,69.5,55.9,30.33,South,172,8.0,8.0,62,0.00,,,0.00,Wunderground v.1.15,2013-07-01 14:42:00,
2013-07-01 08:48:00,69.4,56.7,30.33,SSE,153,6.0,8.0,64,0.00,,,0.00,Wunderground v.1.15,2013-07-01 14:48:00,
2013-07-01 08:53:00,69.6,56.9,30.33,South,174,5.0,6.0,64,0.00,,,0.00,Wunderground v.1.15,2013-07-01 14:53:00,
2013-07-01 09:00:00,69.4,56.7,30.33,South,170,5.0,5.0,64,0.00,,,0.00,Wunderground v.1.15,2013-07-01 15:00:00,
2013-07-01 09:06:00,69.5,56.8,30.33,SSE,164,6.0,14.0,64,0.00,,,0.00,Wunderground v.1.15,2013-07-01 15:06:00,
2013-07-01 09:12:00,69.5,56.8,30.32,SSE,148,6.0,6.0,64,0.00,,,0.00,Wunderground v.1.15,2013-07-01 15:12:00,
2013-07-01 09:18:00,70.5,56.9,30.32,South,173,6.0,6.0,62,0.00,,,0.00,Wunderground v.1.15,2013-07-01 15:18:00,
2013-07-01 09:23:00,70.6,56.5,30.32,SSE,154,6.0,7.0,61,0.00,,,0.00,Wunderground v.1.15,2013-07-01 15:23:00,
2013-07-01 09:30:00,70.8,56.2,30.32,SE,133,7.0,9.0,60,0.00,,,0.00,Wunderground v.1.15,2013-07-01 15:30:00,
2013-07-01 09:36:00,71.2,57.1,30.32,SSE,168,7.0,12.0,61,0.00,,,0.00,Wunderground v.1.15,2013-07-01 15:36:00,
2013-07-01 09:41:00,72.1,57.0,30.32,SSE,157,6.0,7.0,59,0.00,,,0.00,Wunderground v.1.15,2013-07-01 15:41:00,
2013-07-01 09:48:00,72.7,57.1,30.32,SE,124,6.0,10.0,58,0.00,,,0.00,Wunderground v.1.15,2013-07-01 15:48:00,
2013-07-01 09:54:00,73.2,56.6,30.32,SSE,155,7.0,8.0,56,0.00,,,0.00,Wunderground v.1.15,2013-07-01 15:54:00,
2013-07-01 10:00:00,73.2,56.1,30.32,SSE,148,7.0,10.0,55,0.00,,,0.00,Wunderground v.1.15,2013-07-01 16:00:00,
2013-07-01 10:06:00,73.4,55.7,30.32,SE,145,8.0,12.0,54,0.00,,,0.00,Wunderground v.1.15,2013-07-01 16:06:00,
2013-07-01 10:11:00,73.7,55.5,30.32,South,170,8.0,12.0,53,0.00,,,0.00,Wunderground v.1.15,2013-07-01 16:11:00,
2013-07-01 10:18:00,74.6,55.3,30.32,SSE,147,9.0,12.0,51,0.00,,,0.00,Wunderground v.1.15,2013-07-01 16:18:00,
2013-07-01 10:24:00,74.6,56.3,30.32,SSW,198,8.0,10.0,53,0.00,,,0.00,Wunderground v.1.15,2013-07-01 16:24:00,
2013-07-01 10:30:00,74.5,55.7,30.32,SSE,165,7.0,7.0,52,0.00,,,0.00,Wunderground v.1.15,2013-07-01 16:30:00,
2013-07-01 10:35:00,74.5,55.7,30.32,South,189,8.0,14.0,52,0.00,,,0.00,Wunderground v.1.15,2013-07-01 16:35:00,
2013-07-01 10:42:00,75.3,55.9,30.32,SE,127,8.0,11.0,51,0.00,,,0.00,Wunderground v.1.15,2013-07-01 16:42:00,
2013-07-01 10:48:00,76.5,56.5,30.31,SE,133,8.0,13.0,50,0.00,,,0.00,Wunderground v.1.15,2013-07-01 16:48:00,
2013-07-01 10:54:00,76.7,55.5,30.31,SSE,155,8.0,9.0,48,0.00,,,0.00,Wunderground v.1.15,2013-07-01 16:54:00,
2013-07-01 11:00:00,76.7,55.0,30.31,South,169,8.0,10.0,47,0.00,,,0.00,Wunderground v.1.15,2013-07-01 17:00:00,
2013-07-01 11:06:00,77.1,56.5,30.31,South,176,8.0,15.0,49,0.00,,,0.00,Wunderground v.1.15,2013-07-01 17:06:00,
2013-07-01 11:12:00,77.4,54.4,30.31,SSW,192,8.0,13.0,45,0.00,,,0.00,Wunderground v.1.15,2013-07-01 17:12:00,
2013-07-01 11:18:00,77.5,55.7,30.31,SSE,162,9.0,13.0,47,0.00,,,0.00,Wunderground v.1.15,2013-07-01 17:18:00,
2013-07-01 11:23:00,77.9,55.5,30.31,SE,138,8.0,14.0,46,0.00,,,0.00,Wunderground v.1.15,2013-07-01 17:23:00,
2013-07-01 11:29:00,77.7,55.3,30.31,South,170,9.0,11.0,46,0.00,,,0.00,Wunderground v.1.15,2013-07-01 17:29:00,
2013-07-01 11:36:00,77.7,54.7,30.31,South,170,10.0,16.0,45,0.00,,,0.00,Wunderground v.1.15,2013-07-01 17:36:00,
2013-07-01 11:42:00,77.7,54.7,30.31,South,169,9.0,13.0,45,0.00,,,0.00,Wunderground v.1.15,2013-07-01 17:42:00,
2013-07-01 11:48:00,77.9,55.5,30.31,SE,139,9.0,13.0,46,0.00,,,0.00,Wunderground v.1.15,2013-07-01 17:48:00,
2013-07-01 11:53:00,78.4,55.3,30.31,South,179,8.0,10.0,45,0.00,,,0.00,Wunderground v.1.15,2013-07-01 17:53:00,
2013-07-01 12:00:00,78.1,54.4,30.31,SSE,167,9.0,9.0,44,0.00,,,0.00,Wunderground v.1.15,2013-07-01 18:00:00,
2013-07-01 12:06:00,78.9,54.5,30.31,SE,129,9.0,17.0,43,0.00,,,0.00,Wunderground v.1.15,2013-07-01 18:06:00,
2013-07-01 12:12:00,79.4,54.3,30.30,SE,131,9.0,13.0,42,0.00,,,0.00,Wunderground v.1.15,2013-07-01 18:12:00,
2013-07-01 12:17:00,78.7,54.3,30.30,SE,125,7.0,13.0,43,0.00,,,0.00,Wunderground v.1.15,2013-07-01 18:17:00,
2013-07-01 12:23:00,77.8,54.1,30.30,SSE,149,8.0,10.0,44,0.00,,,0.00,Wunderground v.1.15,2013-07-01 18:23:00,
2013-07-01 12:30:00,79.0,55.2,30.30,SSW,201,8.0,8.0,44,0.00,,,0.00,Wunderground v.1.15,2013-07-01 18:30:00,
2013-07-01 12:36:00,79.5,54.4,30.30,South,170,8.0,17.0,42,0.00,,,0.00,Wunderground v.1.15,2013-07-01 18:36:00,
2013-07-01 12:42:00,78.5,54.1,30.30,SE,139,9.0,9.0,43,0.00,,,0.00,Wunderground v.1.15,2013-07-01 18:42:00,
2013-07-01 12:48:00,77.7,54.7,30.30,SE,146,8.0,11.0,45,0.00,,,0.00,Wunderground v.1.15,2013-07-01 18:48:00,
2013-07-01 12:54:00,77.7,54.0,30.29,SE,132,8.0,9.0,44,0.00,,,0.00,Wunderground v.1.15,2013-07-01 18:54:00,
2013-07-01 13:00:00,78.5,54.1,30.29,SE,131,8.0,8.0,43,0.00,,,0.00,Wunderground v.1.15,2013-07-01 19:00:00,
2013-07-01 13:06:00,78.6,54.2,30.29,ESE,118,9.0,21.0,43,0.00,,,0.00,Wunderground v.1.15,2013-07-01 19:06:00,
2013-07-01 13:12:00,78.8,54.4,30.29,SSE,153,8.0,9.0,43,0.00,,,0.00,Wunderground v.1.15,2013-07-01 19:12:00,
2013-07-01 13:17:00,79.0,53.9,30.29,SE,139,8.0,10.0,42,0.00,,,0.00,Wunderground v.1.15,2013-07-01 19:17:00,
2013-07-01 13:23:00,78.7,53.7,30.29,SE,129,9.0,9.0,42,0.00,,,0.00,Wunderground v.1.15,2013-07-01 19:23:00,
2013-07-01 13:30:00,78.6,54.2,30.29,SSW,192,8.0,8.0,43,0.00,,,0.00,Wunderground v.1.15,2013-07-01 19:30:00,
2013-07-01 13:36:00,78.6,54.2,30.29,SSE,162,5.0,17.0,43,0.00,,,0.00,Wunderground v.1.15,2013-07-01 19:36:00,
2013-07-01 13:41:00,78.4,54.0,30.29,SE,124,7.0,12.0,43,0.00,,,0.00,Wunderground v.1.15,2013-07-01 19:41:00,
2013-07-01 13:48:00,78.0,53.7,30.29,East,99,8.0,12.0,43,0.00,,,0.00,Wunderground v.1.15,2013-07-01 19:48:00,
2013-07-01 13:54:00,77.9,53.0,30.28,ESE,121,5.0,8.0,42,0.00,,,0.00,Wunderground v.1.15,2013-07-01 19:54:00,
2013-07-01 14:00:00,77.8,53.5,30.28,SE,139,5.0,9.0,43,0.00,,,0.00,Wunderground v.1.15,2013-07-01 20:00:00,
2013-07-01 14:06:00,77.7,53.4,30.28,SE,137,8.0,16.0,43,0.00,,,0.00,Wunderground v.1.15,2013-07-01 20:06:00,
2013-07-01 14:11:00,77.9,53.6,30.28,SSW,200,8.0,8.0,43,0.00,,,0.00,Wunderground v.1.15,2013-07-01 20:11:00,
2013-07-01 14:17:00,78.9,54.5,30.28,South,176,7.0,10.0,43,0.00,,,0.00,Wunderground v.1.15,2013-07-01 20:17:00,
2013-07-01 14:24:00,80.4,55.2,30.28,South,176,6.0,9.0,42,0.00,,,0.00,Wunderground v.1.15,2013-07-01 20:24:00,
2013-07-01 14:30:00,81.2,54.6,30.27,SE,141,6.0,9.0,40,0.00,,,0.00,Wunderground v.1.15,2013-07-01 20:30:00,
2013-07-01 14:36:00,81.4,54.1,30.27,SSE,151,7.0,16.0,39,0.00,,,0.00,Wunderground v.1.15,2013-07-01 20:36:00,
2013-07-01 14:42:00,82.2,54.8,30.27,SSE,156,6.0,10.0,39,0.00,,,0.00,Wunderground v.1.15,2013-07-01 20:42:00,
2013-07-01 14:48:00,82.0,54.6,30.27,ESE,102,5.0,10.0,39,0.00,,,0.00,Wunderground v.1.15,2013-07-01 20:48:00,
2013-07-01 14:54:00,81.2,53.9,30.27,South,180,5.0,8.0,39,0.00,,,0.00,Wunderground v.1.15,2013-07-01 20:54:00,
2013-07-01 14:59:00,80.4,53.2,30.28,SSE,166,6.0,6.0,39,0.00,,,0.00,Wunderground v.1.15,2013-07-01 20:59:00,
2013-07-01 15:06:00,79.6,52.5,30.28,ESE,106,7.0,13.0,39,0.00,,,0.00,Wunderground v.1.15,2013-07-01 21:06:00,
2013-07-01 15:11:00,79.4,53.6,30.27,East,100,6.0,7.0,41,0.00,,,0.00,Wunderground v.1.15,2013-07-01 21:11:00,
2013-07-01 15:17:00,79.7,53.9,30.27,East,92,6.0,8.0,41,0.00,,,0.00,Wunderground v.1.15,2013-07-01 21:17:00,
2013-07-01 15:24:00,79.5,53.1,30.27,ESE,118,7.0,8.0,40,0.00,,,0.00,Wunderground v.1.15,2013-07-01 21:24:00,
2013-07-01 15:30:00,79.2,52.8,30.27,ENE,73,7.0,7.0,40,0.00,,,0.00,Wunderground v.1.15,2013-07-01 21:30:00,
2013-07-01 15:35:00,80.0,53.5,30.27,SE,135,6.0,13.0,40,0.00,,,0.00,Wunderground v.1.15,2013-07-01 21:35:00,
2013-07-01 15:42:00,80.2,53.0,30.27,ESE,107,8.0,12.0,39,0.00,,,0.00,Wunderground v.1.15,2013-07-01 21:42:00,
2013-07-01 15:48:00,79.6,53.1,30.27,ESE,119,8.0,12.0,40,0.00,,,0.00,Wunderground v.1.15,2013-07-01 21:48:00,
2013-07-01 15:54:00,79.4,53.6,30.27,ESE,112,6.0,9.0,41,0.00,,,0.00,Wunderground v.1.15,2013-07-01 21:54:00,
2013-07-01 16:00:00,79.3,52.9,30.27,ESE,110,5.0,7.0,40,0.00,,,0.00,Wunderground v.1.15,2013-07-01 22:00:00,
2013-07-01 16:06:00,80.0,53.5,30.27,ESE,112,5.0,14.0,40,0.00,,,0.00,Wunderground v.1.15,2013-07-01 22:06:00,
2013-07-01 16:12:00,80.5,52.6,30.26,ESE,118,5.0,5.0,38,0.00,,,0.00,Wunderground v.1.15,2013-07-01 22:12:00,
2013-07-01 16:17:00,80.8,52.1,30.27,SE,133,6.0,9.0,37,0.00,,,0.00,Wunderground v.1.15,2013-07-01 22:17:00,
2013-07-01 16:24:00,81.4,53.4,30.27,SSE,147,6.0,7.0,38,0.00,,,0.00,Wunderground v.1.15,2013-07-01 22:24:00,
2013-07-01 16:30:00,81.8,53.0,30.27,SSE,167,6.0,6.0,37,0.00,,,0.00,Wunderground v.1.15,2013-07-01 22:30:00,
2013-07-01 16:36:00,80.9,52.2,30.27,SE,127,7.0,15.0,37,0.00,,,0.00,Wunderground v.1.15,2013-07-01 22:36:00,
2013-07-01 16:42:00,80.3,52.4,30.27,South,172,5.0,5.0,38,0.00,,,0.00,Wunderground v.1.15,2013-07-01 22:42:00,
2013-07-01 16:48:00,80.4,51.7,30.27,SE,134,4.0,6.0,37,0.00,,,0.00,Wunderground v.1.15,2013-07-01 22:48:00,
2013-07-01 16:54:00,80.4,51.7,30.27,SSE,153,6.0,6.0,37,0.00,,,0.00,Wunderground v.1.15,2013-07-01 22:54:00,
2013-07-01 16:59:00,81.1,52.4,30.26,SSW,194,5.0,5.0,37,0.00,,,0.00,Wunderground v.1.15,2013-07-01 22:59:00,
2013-07-01 17:06:00,82.1,54.0,30.26,SSE,158,3.0,13.0,38,0.00,,,0.00,Wunderground v.1.15,2013-07-01 23:06:00,
2013-07-01 17:12:00,82.3,52.7,30.26,SE,132,6.0,8.0,36,0.00,,,0.00,Wunderground v.1.15,2013-07-01 23:12:00,
2013-07-01 17:18:00,81.2,53.2,30.26,SE,139,5.0,8.0,38,0.00,,,0.00,Wunderground v.1.15,2013-07-01 23:18:00,
2013-07-01 17:23:00,80.5,51.8,30.26,SE,133,5.0,7.0,37,0.00,,,0.00,Wunderground v.1.15,2013-07-01 23:23:00,
2013-07-01 17:30:00,81.0,53.0,30.26,SE,133,5.0,9.0,38,0.00,,,0.00,Wunderground v.1.15,2013-07-01 23:30:00,
2013-07-01 17:36:00,81.2,51.7,30.25,ESE,106,6.0,11.0,36,0.00,,,0.00,Wunderground v.1.15,2013-07-01 23:36:00,
2013-07-01 17:42:00,81.2,52.4,30.25,ESE,106,6.0,6.0,37,0.00,,,0.00,Wunderground v.1.15,2013-07-01 23:42:00,
2013-07-01 17:47:00,80.6,51.2,30.25,East,94,5.0,8.0,36,0.00,,,0.00,Wunderground v.1.15,2013-07-01 23:47:00,
2013-07-01 17:53:00,79.6,51.8,30.25,SE,136,5.0,7.0,38,0.00,,,0.00,Wunderground v.1.15,2013-07-01 23:53:00,
2013-07-01 18:00:00,79.0,51.9,30.25,SE,137,6.0,7.0,39,0.00,,,0.00,Wunderground v.1.15,2013-07-02 00:00:00,
2013-07-01 18:06:00,78.8,51.7,30.25,ESE,120,5.0,12.0,39,0.00,,,0.00,Wunderground v.1.15,2013-07-02 00:06:00,
2013-07-01 18:11:00,79.0,51.2,30.25,SE,129,5.0,5.0,38,0.00,,,0.00,Wunderground v.1.15,2013-07-02 00:11:00,
2013-07-01 18:18:00,79.6,51.8,30.25,SE,133,7.0,12.0,38,0.00,,,0.00,Wunderground v.1.15,2013-07-02 00:18:00,
2013-07-01 18:24:00,79.7,51.1,30.25,SE,136,9.0,9.0,37,0.00,,,0.00,Wunderground v.1.15,2013-07-02 00:24:00,
2013-07-01 18:30:00,79.7,51.1,30.25,ENE,65,7.0,8.0,37,0.00,,,0.00,Wunderground v.1.15,2013-07-02 00:30:00,
2013-07-01 18:35:00,79.8,51.2,30.25,ESE,106,6.0,13.0,37,0.00,,,0.00,Wunderground v.1.15,2013-07-02 00:35:00,
2013-07-01 18:42:00,79.8,51.2,30.25,SE,145,4.0,5.0,37,0.00,,,0.00,Wunderground v.1.15,2013-07-02 00:42:00,
2013-07-01 18:48:00,79.5,50.9,30.25,SE,141,7.0,9.0,37,0.00,,,0.00,Wunderground v.1.15,2013-07-02 00:48:00,
2013-07-01 18:54:00,78.6,50.9,30.25,ESE,110,8.0,8.0,38,0.00,,,0.00,Wunderground v.1.15,2013-07-02 00:54:00,
2013-07-01 18:59:00,78.2,50.5,30.25,East,85,6.0,6.0,38,0.00,,,0.00,Wunderground v.1.15,2013-07-02 00:59:00,
2013-07-01 19:06:00,78.3,51.3,30.25,ESE,114,6.0,14.0,39,0.00,,,0.00,Wunderground v.1.15,2013-07-02 01:06:00,
2013-07-01 19:12:00,78.4,50.7,30.25,SE,131,7.0,11.0,38,0.00,,,0.00,Wunderground v.1.15,2013-07-02 01:12:00,
2013-07-01 19:17:00,78.2,50.5,30.26,ESE,120,7.0,11.0,38,0.00,,,0.00,Wunderground v.1.15,2013-07-02 01:17:00,
2013-07-01 19:24:00,77.6,50.7,30.26,East,93,7.0,7.0,39,0.00,,,0.00,Wunderground v.1.15,2013-07-02 01:24:00,
2013-07-01 19:30:00,76.8,50.6,30.26,ESE,108,7.0,7.0,40,0.00,,,0.00,Wunderground v.1.15,2013-07-02 01:30:00,
2013-07-01 19:36:00,75.9,50.5,30.26,SE,127,7.0,14.0,41,0.00,,,0.00,Wunderground v.1.15,2013-07-02 01:36:00,
2013-07-01 19:42:00,75.1,49.8,30.26,ESE,108,6.0,10.0,41,0.00,,,0.00,Wunderground v.1.15,2013-07-02 01:42:00,
2013-07-01 19:48:00,75.0,49.0,30.26,SE,138,7.0,10.0,40,0.00,,,0.00,Wunderground v.1.15,2013-07-02 01:48:00,
2013-07-01 19:54:00,74.8,48.9,30.26,SE,129,8.0,10.0,40,0.00,,,0.00,Wunderground v.1.15,2013-07-02 01:54:00,
2013-07-01 20:00:00,74.4,48.5,30.26,SE,126,7.0,7.0,40,0.00,,,0.00,Wunderground v.1.15,2013-07-02 02:00:00,
2013-07-01 20:06:00,73.9,48.7,30.26,ESE,117,7.0,13.0,41,0.00,,,0.00,Wunderground v.1.15,2013-07-02 02:06:00,
2013-07-01 20:12:00,73.5,47.7,30.26,SE,139,8.0,9.0,40,0.00,,,0.00,Wunderground v.1.15,2013-07-02 02:12:00,
2013-07-01 20:18:00,73.1,48.0,30.26,East,97,8.0,11.0,41,0.00,,,0.00,Wunderground v.1.15,2013-07-02 02:18:00,
2013-07-01 20:23:00,72.7,47.6,30.26,ESE,118,8.0,8.0,41,0.00,,,0.00,Wunderground v.1.15,2013-07-02 02:23:00,
2013-07-01 20:30:00,72.4,47.4,30.26,SE,127,8.0,8.0,41,0.00,,,0.00,Wunderground v.1.15,2013-07-02 02:30:00,
2013-07-01 20:36:00,72.1,47.7,30.26,SE,134,8.0,13.0,42,0.00,,,0.00,Wunderground v.1.15,2013-07-02 02:36:00,
2013-07-01 20:41:00,71.8,47.5,30.26,ESE,114,8.0,9.0,42,0.00,,,0.00,Wunderground v.1.15,2013-07-02 02:41:00,
2013-07-01 20:48:00,71.4,47.7,30.26,ESE,123,9.0,13.0,43,0.00,,,0.00,Wunderground v.1.15,2013-07-02 02:48:00,
2013-07-01 20:54:00,70.9,47.9,30.27,ESE,114,8.0,8.0,44,0.00,,,0.00,Wunderground v.1.15,2013-07-02 02:54:00,
2013-07-01 20:59:00,70.6,48.2,30.27,ESE,112,8.0,10.0,45,0.00,,,0.00,Wunderground v.1.15,2013-07-02 02:59:00,
2013-07-01 21:06:00,70.1,47.8,30.27,ESE,115,8.0,15.0,45,0.00,,,0.00,Wunderground v.1.15,2013-07-02 03:06:00,
2013-07-01 21:12:00,69.8,47.5,30.27,ESE,116,7.0,10.0,45,0.00,,,0.00,Wunderground v.1.15,2013-07-02 03:12:00,
2013-07-01 21:17:00,69.5,47.8,30.28,SE,131,7.0,10.0,46,0.00,,,0.00,Wunderground v.1.15,2013-07-02 03:17:00,
2013-07-01 21:23:00,69.4,47.7,30.28,SE,126,8.0,8.0,46,0.00,,,0.00,Wunderground v.1.15,2013-07-02 03:23:00,
2013-07-01 21:30:00,69.2,47.5,30.29,ESE,121,7.0,9.0,46,0.00,,,0.00,Wunderground v.1.15,2013-07-02 03:30:00,
2013-07-01 21:36:00,68.8,47.7,30.29,ESE,116,7.0,14.0,47,0.00,,,0.00,Wunderground v.1.15,2013-07-02 03:36:00,
2013-07-01 21:41:00,68.7,48.2,30.29,ESE,112,6.0,7.0,48,0.00,,,0.00,Wunderground v.1.15,2013-07-02 03:41:00,
2013-07-01 21:48:00,68.8,48.3,30.29,SE,125,7.0,9.0,48,0.00,,,0.00,Wunderground v.1.15,2013-07-02 03:48:00,
2013-07-01 21:54:00,69.1,48.0,30.30,ESE,104,7.0,12.0,47,0.00,,,0.00,Wunderground v.1.15,2013-07-02 03:54:00,
2013-07-01 21:59:00,69.4,48.3,30.30,ESE,112,8.0,11.0,47,0.00,,,0.00,Wunderground v.1.15,2013-07-02 03:59:00,
2013-07-01 22:02:00,69.4,48.3,30.30,SE,133,8.0,13.0,47,0.00,,,0.00,Wunderground v.1.15,2013-07-02 04:02:00,
2013-07-01 22:04:00,69.4,48.3,30.29,ESE,119,8.0,13.0,47,0.00,,,0.00,Wunderground v.1.15,2013-07-02 04:04:00,
2013-07-01 22:08:00,69.3,48.2,30.30,ESE,109,8.0,13.0,47,0.00,,,0.00,Wunderground v.1.15,2013-07-02 04:08:00,
2013-07-01 22:11:00,69.2,48.1,30.30,ESE,122,8.0,9.0,47,0.00,,,0.00,Wunderground v.1.15,2013-07-02 04:11:00,
2013-07-01 22:17:00,69.2,48.1,30.30,ESE,118,8.0,11.0,47,0.00,,,0.00,Wunderground v.1.15,2013-07-02 04:17:00,
2013-07-01 22:24:00,69.3,48.2,30.30,ESE,123,8.0,9.0,47,0.00,,,0.00,Wunderground v.1.15,2013-07-02 04:24:00,
2013-07-01 22:30:00,69.4,48.3,30.30,SE,126,7.0,7.0,47,0.00,,,0.00,Wunderground v.1.15,2013-07-02 04:30:00,
2013-07-01 22:35:00,69.4,48.3,30.30,SE,135,6.0,15.0,47,0.00,,,0.00,Wunderground v.1.15,2013-07-02 04:35:00,
2013-07-01 22:42:00,69.4,48.3,30.30,SSE,153,5.0,7.0,47,0.00,,,0.00,Wunderground v.1.15,2013-07-02 04:42:00,
2013-07-01 22:48:00,69.2,48.1,30.30,South,170,5.0,7.0,47,0.00,,,0.00,Wunderground v.1.15,2013-07-02 04:48:00,
2013-07-01 22:54:00,68.5,48.6,30.30,SSE,165,4.0,5.0,49,0.00,,,0.00,Wunderground v.1.15,2013-07-02 04:54:00,
2013-07-01 22:59:00,67.7,48.4,30.30,SSE,166,2.0,2.0,50,0.00,,,0.00,Wunderground v.1.15,2013-07-02 04:59:00,
2013-07-01 23:05:00,66.9,48.7,30.30,SSE,166,2.0,12.0,52,0.00,,,0.00,Wunderground v.1.15,2013-07-02 05:05:00,
2013-07-01 23:12:00,66.1,48.5,30.30,SSE,166,1.0,1.0,53,0.00,,,0.00,Wunderground v.1.15,2013-07-02 05:12:00,
2013-07-01 23:18:00,65.6,48.0,30.30,SSE,166,1.0,1.0,53,0.00,,,0.00,Wunderground v.1.15,2013-07-02 05:18:00,
2013-07-01 23:24:00,65.0,47.9,30.30,SSE,166,2.0,3.0,54,0.00,,,0.00,Wunderground v.1.15,2013-07-02 05:24:00,
2013-07-01 23:29:00,64.4,47.9,30.30,SSE,166,2.0,3.0,55,0.00,,,0.00,Wunderground v.1.15,2013-07-02 05:29:00,
2013-07-01 23:36:00,64.1,48.1,30.30,SSE,166,2.0,8.0,56,0.00,,,0.00,Wunderground v.1.15,2013-07-02 05:36:00,
2013-07-01 23:41:00,63.9,47.9,30.30,SSE,166,1.0,2.0,56,0.00,,,0.00,Wunderground v.1.15,2013-07-02 05:41:00,
2013-07-01 23:48:00,63.7,47.7,30.30,SSE,166,1.0,2.0,56,0.00,,,0.00,Wunderground v.1.15,2013-07-02 05:48:00,
2013-07-01 23:54:00,63.6,47.6,30.30,South,170,2.0,2.0,56,0.00,,,0.00,Wunderground v.1.15,2013-07-02 05:54:00,